Regional Weather Roundup
Issued by NWS Little Rock, AR

Home | Current Version | Previous Version | Text Only | Print | Product List | Glossary Off
Versions: 1 2 3 4 5 6 7 8 9 10 11 12 13 14 15 16 17 18 19 20 21 22 23 24 25 26 27 28 29 30 31 32 33 34 35 36 37 38 39 40 41 42 43 44 45 46 47 48 49 50

985
ASUS44 KLZK 081305
RWRLZK

WEATHER ROUNDUP FOR ARKANSAS
NATIONAL WEATHER SERVICE LITTLE ROCK AR
700 AM CST MON FEB 08 2016

NOTE: "FAIR" INDICATES FEW OR NO CLOUDS BELOW 12,000 FEET WITH NO
SIGNIFICANT WEATHER AND/OR OBSTRUCTIONS TO VISIBILITY.

ARZ001-003-010-029-081400-
NORTHWEST ARKANSAS

CITY           SKY/WX    TMP DP  RH WIND       PRES   REMARKS
FAYETTEVILLE   CLEAR     32  17  54 NW15G22   30.07S WCI  22
FORT SMITH     CLEAR     39  14  36 NW20G35   30.13S
HARRISON       CLOUDY    34  19  54 NW15G29   29.97S WCI  24
BENTONVILLE    CLEAR     34  14  44 NW13G21   30.06S WCI  25
ROGERS         PTCLDY    33  16  49 NW14G24   30.05S WCI  23
SILOAM SPGS    PTCLDY    34  12  40 NW15G23   30.09R WCI  24
HIGHFILL       PTCLDY    33  17  51 NW13G25   30.06R WCI  24
SPRINGDALE     CLEAR     32  16  51 NW14G25   30.07S WCI  22
$$

ARZ004-005-016-081400-
NORTH CENTRAL ARKANSAS

CITY           SKY/WX    TMP DP  RH WIND       PRES   REMARKS
BATESVILLE     CLEAR     39  19  45 W13G23    29.95R
FLIPPIN        PTCLDY    37  18  44 NW14      29.95R
MTN HOME       PTCLDY    36  20  52 VRB7G21   29.95R
$$

ARZ040-041-081400-
WEST CENTRAL ARKANSAS

CITY           SKY/WX    TMP DP  RH WIND       PRES   REMARKS
MENA           CLEAR     41  19  42 NW16G35   30.11R
MOUNT IDA      CLEAR     40  18  41 NW14G25   30.05R
$$

ARZ009-017-025-026-028-081400-
NORTHEAST ARKANSAS

CITY           SKY/WX    TMP DP  RH WIND       PRES   REMARKS
CORNING        FAIR      39  27  60 W16       29.88F
JONESBORO      MOCLDY    37  24  59 W7        29.91S
NEWPORT        PTCLDY    39  22  51 W14       29.95R
WALNUT RIDGE   CLOUDY    37  21  52 W9        29.91S
BLYTHEVILLE    CLEAR     39  25  57 W13       29.90S
$$

ARZ022-023-033-042-044-081400-
CENTRAL ARKANSAS

CITY           SKY/WX    TMP DP  RH WIND       PRES   REMARKS
LITTLE ROCK    CLEAR     42  20  41 W16G23    30.01S
N LITTLE ROCK    N/A     40  23  51 W8G16     30.01S
JACKSONVILLE   CLEAR     40  20  45 W10       29.99R
SEARCY         CLEAR     38  21  50 W8        29.99S
HOT SPRINGS    CLEAR     41  20  43 NW17G30   30.05R
RUSSELLVILLE   CLEAR     39  20  46 NW13G25   30.03R
CLINTON        FAIR      39  19  45 W5G16     29.99S
$$

ARZ036-081400-
EAST ARKANSAS

CITY           SKY/WX    TMP DP  RH WIND       PRES   REMARKS
WEST MEMPHIS   CLEAR     37  25  61 W3        29.92F
$$

ARZ050-053-066-070-073-081400-
SOUTHWEST ARKANSAS

CITY           SKY/WX    TMP DP  RH WIND       PRES   REMARKS
ARKADELPHIA    FAIR      42  22  45 W8        30.09R
CAMDEN         CLEAR     41  18  38 W6        30.08S
TEXARKANA      CLEAR     43  18  36 NW20G26   30.15R
EL DORADO      CLEAR     43  19  38 W9        30.10R
DE QUEEN       CLEAR     42  19  39 NW13G21   30.16R
$$

ARZ056-057-069-081400-
SOUTHEAST ARKANSAS

CITY           SKY/WX    TMP DP  RH WIND       PRES   REMARKS
PINE BLUFF     CLEAR     41  20  43 W9        30.02S
STUTTGART      CLEAR     41  21  45 W16       29.99S
MONTICELLO     CLEAR     43  22  43 W10       30.03R

$$






USA.gov is the U.S. government's official web portal to all federal, state and local government web resources and services.